Starlink 35044

operational
NORAD ID: 65536 Int'l Des: 2025-200 Owner: SPXS Country: US Constellation: starlink
LEOCIRCULARRETROGRADE

关于 Starlink 35044

正在加载描述...

实时位置

正在加载3D地球...

即将过境

高度历史

Altitude vs Time

uPlot chart will show altitude changes over time

两行轨道根数

1 65536U 25200S 25303.64625280 .00043189 00000-0 11025-2 0 9996
2 65536 97.6035 11.3063 0002210 79.3167 280.8327 15.39364502 9545
Epoch: Oct 30, 2025 • Age: 14 hours

当前状态

高度 459.9 km
速度 7.64 km/s
星下点 81.60°N, 126.81°E
发射日期 Sep 6, 2025
运行时间 0.1 years
类型 internet

技术详情

分类 Payload
质量 575.00 kg
干质量 530.00 kg
总质量 575.00 kg
长度 0.30 m
直径 4.10 m
跨度 29.00 m
形状 Box + pan
制造商 SPXS
平台类型 Starlink V2MO
阶段状态 In Orbit
所有者/国家 SPXS/US

大型星座

Loading constellations...